Content
SEND FEEDBACK

Daily
Averages
Monthly
Summary
United Kingdom

LONDON, ENGLAND


Home > Europe > United Kingdom > England
Elevation: 203 feet     Latitude: 51 09N     Longitude: 000 11W

WEATHER
 
SELECT A DAY
Number of Records: 299,385;   Date Range: 7/1/96 - 12/16/14
 
SHARE

PRINT THIS DATA

[ ← Previous Day ]
WEATHER ALMANAC - MARCH 9, 2013
[ Next Day → ]
[ °C ]   °F
Weather ElementAverageHighLow
Temperature44.9 °F48.2 °F (1:20 am)39.2 °F (10:50 pm)
Dewpoint42.1 °F46.4 °F (12:50 am)33.8 °F (11:20 pm)
Humidity89.9 %100 % (12:50 am)81 % (6:50 pm)
Barometer29.59 in29.65 in (6:50 pm)29.53 in (12:50 am)
Wind Speed6.3 mph11.5 mph (11:50 pm)
Weather ElementAverage
Visibility2.5 mi
Wind DirectionWSW (242.6 °)

Weather ElementTotal
Precipitation---
Heating Degree Days21.3 (Base 65)
Averaged from 47 records on March 9, 2013
WEATHER CONDITIONS BREAKOUT
WIND DIRECTION BREAKOUT
WEATHER BY HOUR - MARCH 9, 2013
[ °C ]   °F
Local TimeTemperatureDewpointHumidityBarometerVisibilityWind DirectionWind SpeedGust SpeedPrecipitationEventsConditions
12:50 AM46.4 °F46.4 °F100 %29.53 in0.9 miCalmLight Drizzle
1:20 AM48.2 °F46.4 °F93 %29.56 in1.1 miWSW (240°)3.5 mphMostly Cloudy
1:50 AM48.2 °F46.4 °F93 %29.56 in1.9 miVariable2.3 mphOvercast
2:20 AM48.2 °F46.4 °F93 %29.56 in1.0 miCalmOvercast
2:50 AM48.2 °F46.4 °F93 %29.53 in0.5 miWest (280°)2.3 mphFogFog
3:20 AM48.2 °F46.4 °F93 %29.53 in0.5 miNNW (330°)2.3 mphFogFog
3:50 AM46.4 °F46.4 °F100 %29.53 in0.6 miCalmFogFog
4:20 AM46.4 °F46.4 °F100 %29.53 in0.9 miVariable3.5 mphMostly Cloudy
4:50 AM46.4 °F44.6 °F93 %29.53 in0.9 miVariable2.3 mphFogPatches of Fog
5:20 AM46.4 °F44.6 °F93 %29.53 in0.6 miNW (310°)4.6 mphFogFog
5:50 AM46.4 °F44.6 °F93 %29.53 in0.6 miNW (320°)5.8 mphMostly Cloudy
6:20 AM46.4 °F44.6 °F93 %29.53 in0.4 miNNW (330°)5.8 mphFogFog
6:50 AM44.6 °F44.6 °F100 %29.53 inVariable3.5 mphFogFog
7:20 AM44.6 °F44.6 °F100 %29.56 in0.7 miNW (320°)4.6 mphMostly Cloudy
7:50 AM44.6 °F42.8 °F93 %29.56 in1.1 miNW (310°)5.8 mphMostly Cloudy
8:20 AM44.6 °F42.8 °F93 %29.56 in1.0 miNW (320°)5.8 mphMostly Cloudy
8:50 AM44.6 °F42.8 °F93 %29.59 in1.4 miNW (310°)5.8 mphMostly Cloudy
9:20 AM44.6 °F42.8 °F93 %29.59 in1.2 miWNW (300°)6.9 mphHaze
9:50 AM44.6 °F42.8 °F93 %29.59 in1.2 miNW (310°)6.9 mphLight Drizzle
10:20 AM44.6 °F42.8 °F93 %29.59 in1.6 miNW (320°)6.9 mphHaze
10:50 AM44.6 °F42.8 °F93 %29.59 in1.9 miNNW (330°)5.8 mphHaze
11:20 AM44.6 °F42.8 °F93 %29.59 in1.9 miNW (320°)5.8 mphHaze
11:50 AM46.4 °F42.8 °F87 %29.59 in1.9 miNW (310°)6.9 mphHaze
12:20 PM46.4 °F42.8 °F87 %29.59 in2.5 miWNW (300°)5.8 mphHaze
12:50 PM46.4 °F42.8 °F87 %29.59 in2.2 miNW (320°)8.1 mphHaze
1:20 PM46.4 °F42.8 °F87 %29.59 in2.8 miNW (310°)8.1 mphHaze
1:50 PM46.4 °F42.8 °F87 %29.59 in2.5 miNW (310°)8.1 mphHaze
2:20 PM46.4 °F42.8 °F87 %29.59 inNW (310°)8.1 mphHaze
2:50 PM46.4 °F42.8 °F87 %29.59 in2.5 miNW (320°)8.1 mphHaze
3:20 PM46.4 °F42.8 °F87 %29.59 inNNW (340°)9.2 mphHaze
3:50 PM46.4 °F42.8 °F87 %29.59 inNW (320°)9.2 mphHaze
4:20 PM44.6 °F42.8 °F93 %29.59 in1.9 miNNW (340°)8.1 mphHaze
4:50 PM44.6 °F41.0 °F87 %29.62 inNNW (340°)9.2 mphHaze
5:20 PM44.6 °F41.0 °F87 %29.62 inNNW (340°)6.9 mphHaze
5:50 PM44.6 °F41.0 °F87 %29.62 in3.1 miNNW (330°)6.9 mphHaze
6:20 PM44.6 °F41.0 °F87 %29.62 in3.1 miNW (320°)6.9 mphHaze
6:50 PM44.6 °F39.2 °F81 %29.65 in3.7 miNorth (360°)6.9 mphMostly Cloudy
7:20 PM42.8 °F39.2 °F87 %29.65 in3.7 miNorth (360°)8.1 mphMostly Cloudy
7:50 PM42.8 °F39.2 °F87 %29.65 in4.3 miNNW (340°)8.1 mphMostly Cloudy
8:20 PM42.8 °F37.4 °F81 %29.65 in5.6 miNorth (360°)9.2 mphMostly Cloudy
8:50 PM42.8 °F37.4 °F81 %29.65 in5.6 miNorth (350°)6.9 mphMostly Cloudy
9:20 PM41.0 °F37.4 °F87 %29.65 in5.6 miNorth (360°)8.1 mphMostly Cloudy
9:50 PM41.0 °F37.4 °F87 %29.65 in5.0 miNNE (20°)9.2 mphMostly Cloudy
10:20 PM41.0 °F35.6 °F81 %29.65 in4.3 miNNE (20°)8.1 mphMostly Cloudy
10:50 PM39.2 °F35.6 °F87 %29.65 in6.2 miNNE (30°)10.4 mphMostly Cloudy
11:20 PM39.2 °F33.8 °F81 %29.65 in6.2 miNNE (20°)10.4 mphMostly Cloudy
11:50 PM39.2 °F33.8 °F81 %29.65 in6.2 miNNE (20°)11.5 mphOvercast
Hourly data recorded from EGKK, located miles away from London, England







STORIES FROM OUR PARTNERS